Weather Roundup
Issued by NWS Corpus Christi, TX

Home | Current Version | Previous Version | Text Only | Print | Product List | Glossary On
Versions: 1 2 3 4 5 6 7 8 9 10 11 12 13 14 15 16 17 18 19 20 21 22 23 24 25 26 27 28 29 30 31 32 33 34 35 36 37 38 39 40 41 42 43 44 45 46 47 48 49 50
023
ASUS44 KCRP 190910
HRRCRP

SOUTH TEXAS REGIONAL WEATHER ROUNDUP
NATIONAL WEATHER SERVICE CORPUS CHRISTI TX
300 AM CST THU JAN 19 2017


TXZ229>244-191000-
...CORPUS CHRISTI AREA OBSERVATIONS...

CITY           SKY/WX    TMP DP  RH WIND       PRES   REMARKS
CORPUS CHRISTI CLOUDY    58  57  97 N6        29.94S
NAS CORPUS CHR CLOUDY    60  58  92 NW5       29.92F
ROCKPORT       CLOUDY    57  55  93 NW8       29.94F
KINGSVILLE NAS CLOUDY    59  59 100 MISG      29.96S
ALICE          CLOUDY    58  57  97 VRB5      29.94S
ORANGE GROVE   CLOUDY    59  57  93 N6        29.95F
FALFURRIAS     CLOUDY    59  58  96 CALM      29.94F
$$

...VICTORIA AREA OBSERVATIONS...

CITY           SKY/WX    TMP DP  RH WIND       PRES   REMARKS
VICTORIA       CLOUDY    55  53  93 NW8       29.96R
BEEVILLE       CLOUDY    56  56 100 N8        29.96R
PLEASANTON     RAIN      55  53  94 CALM      29.97S
SAN ANTONIO    LGT RAIN  54  50  86 N3        29.94F
$$

...LAREDO AREA OBSERVATIONS...

CITY           SKY/WX    TMP DP  RH WIND       PRES   REMARKS
LAREDO         CLOUDY    59  49  69 W5        29.97F
COTULLA        LGT RAIN  55  52  89 SE6       29.94F
DEL RIO        CLEAR     43  42  97 CALM      29.95F
MCALLEN        LGT RAIN  62  59  90 W5        29.97S
HEBBRONVILLE   CLOUDY    58  56  94 CALM      29.95F
$$

...OTHER TEXAS OBSERVATIONS...

CITY           SKY/WX    TMP DP  RH WIND       PRES   REMARKS
BROWNSVILLE    CLOUDY    63  59  87 W5        29.94F
HOUSTON        LGT RAIN  56  54  93 E10       29.85F
COL. STATION   CLOUDY    52  51  97 NW9       29.95S FOG
AUSTIN         CLOUDY    54  50  86 NW3       29.95F
WACO           CLOUDY    51  50  96 SW5       29.96R
FORT WORTH     CLOUDY    48  47  96 SW8       29.91S FOG
WICHITA FALLS  CLEAR     43  42  97 S12       29.86F
LUBBOCK        CLEAR     44  38  79 SW14      29.79F
EL PASO        PTCLDY    46  36  68 SW14      29.97F
$$

...MARINE OBSERVATIONS...

STATION/POSITION TIME  SKY/WX   TEMP    WIND        PRES    VSBY  WAVE   SWELL
                                AIR SEA DIR/SP/G                  HT/PER HT/PER
                 (UTC)          (F)     (DEG/KT/KT) (MB)    (MI)  (FT/S) (FT/S)
PORT ARANSAS     0800            58 63  310/  8/ 11 1013.4R
BUOY 90 E PORT A 0750            66 73  330/ 10/ 12 1013.5          3/ 6   3/ 6
BUOY 45 SE BAFFI 0750            66      80/  8/ 10 1012.9          3/ 8   3/ 8
BUOY 200 E PT IS 0750            75 75  160/ 12/ 16 1013.7          4/ 7   3/ 7
BUOY 15 E GALVES 0850            62 65  300/ 10/ 12 1012.7F         3/ 6   2/ 6
$$




USA.gov is the U.S. government's official web portal to all federal, state and local government web resources and services.